Regional Weather Roundup
Issued by NWS State College, PA

Home | Current Version | Previous Version | Text Only | Print | Product List | Glossary On
Versions: 1 2 3 4 5 6 7 8 9 10 11 12 13 14 15 16 17 18 19 20 21 22 23 24 25 26 27 28 29 30 31 32 33 34 35 36 37 38 39 40 41 42 43 44 45 46 47 48 49 50
000
ASUS41 KCTP 270510
RWRCTP

REGIONAL WEATHER ROUNDUP
NATIONAL WEATHER SERVICE STATE COLLEGE PA
1200 AM EST TUE JAN 27 2015

Note: "fair" indicates few or no clouds below 12,000 feet with no
significant weather and/or obstructions to visibility.

* = STATION THAT DOES NOT REPORT PRECIPITATION /E.G. RAIN...SNOW...ETC/
    THUNDER OR FOG.

PAZ002>004-007>009-013>016-020>023-029>032-270600-
WESTERN PENNSYLVANIA

CITY           SKY/WX    TMP DP  RH WIND       PRES   REMARKS
ERIE           CLOUDY    20  14  77 NE9       29.89S WCI   9
MEADVILLE      CLOUDY    18  14  84 N6        29.82S WCI  10
FRANKLIN*      CLOUDY    18  12  79 NW3       29.82S
NEW CASTLE     CLOUDY    19  15  84 CALM      29.87S
BEAVER COUNTY  NOT AVBL
BUTLER*        CLOUDY    19  16  86 W5        29.85R WCI  13
PITTSBURGH INT FLURRIES  20  16  84 NW12      29.84S WCI   8
PITTSBURGH     CLOUDY    20  14  77 NW9       29.82S WCI   9
INDIANA*       CLOUDY    21  19  93 CALM      29.83S FOG
LATROBE        FLURRIES  23  21  93 W9        29.84R WCI  13
WASHINGTON CO* CLOUDY    21  18  86 CALM      29.86S
$$

PAZ004>006-010>012-017>019-024>028-033>037-041-042-045-046-049>053-270600-
CENTRAL PENNSYLVANIA

CITY           SKY/WX    TMP DP  RH WIND       PRES   REMARKS
BRADFORD       LGT SNOW  14   9  80 NE3       29.75S
DUBOIS         CLOUDY    18  14  84 N6        29.75F WCI  10
CLEARFIELD     LGT SNOW  19  17  92 CALM      29.77F FOG
JOHNSTOWN      LGT SNOW  19  16  88 W7        29.70F FOG     WCI  10
ALTOONA        LGT SNOW  19  18  95 CALM      29.76F FOG
STATE COLLEGE  CLOUDY    22  19  89 N3        29.78F
WILLIAMSPORT   FLURRIES  24  19  81 W7        29.81F
SELINSGROVE    FLURRIES  25  22  88 N6        29.80F
FT INDIANTOWN  CLOUDY    26  20  76 NE5       29.75F
CAPITAL CITY   CLOUDY    26  21  81 NW10      29.77F
HARRISBURG     FLURRIES  25  22  88 NW9       29.76F
YORK           CLOUDY    25  21  85 NW6       29.75S
$$

PAZ038>040-043-044-047-048-054-055-060>062-067>071-270600-
EASTERN PENNSYLVANIA

CITY           SKY/WX    TMP DP  RH WIND       PRES   REMARKS
SCRANTON       MOCLDY    22  14  71 NE7       29.74F WCI  13
MOUNT POCONO   CLOUDY    19  13  77 NE13G18   29.65F WCI   6
ALLENTOWN      CLOUDY    25  16  68 NE15      29.74F WCI  13
QUAKERTOWN*    NOT AVBL
READING        CLOUDY    26  18  71 N9        29.74F
LANCASTER      CLOUDY    25  18  74 NE9       29.73F
COATESVILLE    CLOUDY    25  21  86 N13G22    29.69F WCI  13
POTTSTOWN      CLOUDY    24  17  74 N8        29.73F
BLUE BELL      CLOUDY    30  21  69 N5        29.70S
DOYLESTOWN     CLOUDY    23  18  81 N10       29.70S WCI  12
WILLOW GROVE   NOT AVBL
NORTH PHILA    CLOUDY    29  18  63 NE20G26   29.72R
PHILADELPHIA   CLOUDY    29  21  72 N17G23    29.71S
$$



USA.gov is the U.S. government's official web portal to all federal, state and local government web resources and services.